Regional Weather Roundup
Issued by NWS

Home | Current Version | Previous Version | Text Only | Print | Product List | Glossary On
Versions: 1 2 3 4 5 6 7 8 9 10 11 12 13 14 15 16 17 18 19 20 21 22 23 24 25 26 27 28 29 30 31 32 33 34 35 36 37 38 39 40 41 42 43 44 45 46 47 48 49 50
000
ASUS43 KDTX 281910
RWRMI
MICHIGAN HOURLY REGIONAL WEATHER ROUNDUP
NATIONAL WEATHER SERVICE DETROIT/PONTIAC MI
300 PM EDT TUE APR 28 2015

NOTE: "FAIR" INDICATES FEW OR NO CLOUDS BELOW 12,000 FEET WITH NO
SIGNIFICANT WEATHER AND/OR OBSTRUCTION TO VISIBILITY.

MIZ047>049-052>055-059>063-066>070-074>076-081>083-282000-
SOUTHEAST LOWER MICHIGAN

CITY           SKY/WX    TMP DP  RH WIND       PRES   REMARKS
ADRIAN         SUNNY     60  35  39 VRB6      30.05F
ALMA           SUNNY     60  36  41 E7        30.06F
ANN ARBOR      SUNNY     63  36  36 VRB5      30.04F
BAD AXE        SUNNY     55  38  52 N7        30.08F
CARO           SUNNY     57  38  48 CALM      30.07F
DETROIT CITY   SUNNY     57  39  51 VRB7      30.06F
DETROIT        MOSUNNY   62  37  39 CALM      30.05F
FLINT          SUNNY     61  36  39 CALM      30.06F
GROSSE ILE     SUNNY     55  41  58 S8        30.04F
HILLSDALE      SUNNY     60  37  42 N7        30.05F
HOWELL         SUNNY     60  35  39 N6        30.05F

CITY           SKY/WX    TMP DP  RH WIND       PRES   REMARKS
JACKSON        SUNNY     60  37  42 NW6       30.05F
LAMBERTVILLE   SUNNY     61  36  39 NW5       30.05F
LANSING        MOSUNNY   60  37  42 SW5       30.06F
LAPEER         FAIR      59  37  43 NW7       30.06F
MASON          SUNNY     60  37  41 S3        30.05F
MONROE         SUNNY     57  41  54 CALM      30.04F
MT. CLEMENS    MOSUNNY   60  39  47 VRB3      30.03F
PONTIAC        MOSUNNY   60  37  42 NE10      30.05F
PORT HOPE        N/A     47  36  65 NE3       30.08F
PORT HURON     SUNNY     52  39  62 NE12G18   30.08F
TRI CITIES     SUNNY     61  36  39 MISG      30.06F
MIDLAND        FAIR      62  34  36 S3        30.05F
TROY           SUNNY     60  35  39 NW5       30.07F
SAGINAW HB     SUNNY     61  36  39 W3        30.06F
$$
MIZ043>046-050>051-056>058-064>065-071>073-077>080-282000-
SOUTHWEST LOWER MICHIGAN

CITY           SKY/WX    TMP DP  RH WIND       PRES   REMARKS
BATTLE CREEK   MOSUNNY   60  37  42 S7        30.06F
BENTON HARBOR  SUNNY     49  37  63 NW7       30.10F
BIG RAPIDS     SUNNY     59  34  39 CALM      30.05F
COLDWATER      SUNNY     58  35  42 CALM      30.05F
FREMONT        FAIR      61  31  32 E5        30.05F
HOLLAND        SUNNY     51  37  58 W10       30.09F
GRAND RAPIDS   MOSUNNY   61  36  39 NW7       30.06F
IONIA          FAIR      61  36  40 N3        30.05F
KALAMAZOO      PTSUNNY   60  36  40 VRB3      30.06F
LUDINGTON      SUNNY     56  36  47 N10G17    30.09F
MARSHALL       SUNNY     59  36  42 NW3       30.05F
MOUNT PLEASANT SUNNY     60  35  39 S5        30.05F
MUSKEGON       MOSUNNY   51  36  56 W10       30.08F
SOUTH HAVEN    SUNNY     49  37  62 W8        30.10F
$$
MIZ016>042-282000-
NORTHERN LOWER MICHIGAN

CITY           SKY/WX    TMP DP  RH WIND       PRES   REMARKS
ALPENA         SUNNY     59  38  45 N12       30.06F
BEAVER ISLAND  SUNNY     53  34  47 W8        30.08F
BELLAIRE       SUNNY     53  33  47 W5        30.10F
CADILLAC       MOSUNNY   59  36  42 CALM      30.05F
CHARLEVOIX     SUNNY     51  36  55 NW7       30.13F
FRANKFORT      SUNNY     56  31  38 N8        30.11F
GAYLORD        MOSUNNY   53  35  50 VRB7      30.06F
GRAYLING       SUNNY     58  34  41 CALM      30.06F
HARBOR SPRINGS SUNNY     47  34  60 SW9       30.09F
HOUGHTON LAKE  SUNNY     57  34  41 SW5       30.06F
MANISTEE       SUNNY     52  34  50 N13G20    30.10F
OSCODA         SUNNY     50  36  58 E9        30.09F
PELLSTON       SUNNY     54  34  46 SW3       30.08F
ROGERS CITY    SUNNY     47  37  67 N7        30.08F
TRAVERSE CITY  MOSUNNY   51  34  52 N12       30.10F
$$
MIZ007>008-015-282000-
EASTERN UPPER MICHIGAN

CITY           SKY/WX    TMP DP  RH WIND       PRES   REMARKS
KINROSS        SUNNY     54  36  50 NW8G16    30.06F
MACKINAC ISLAN SUNNY     49  34  56 SW9       30.07F
NEWBERRY       SUNNY     58  37  45 NW6G20    30.06F
S. S. MARIE    SUNNY     54  35  48 VRB6      30.05F
MUNISING         N/A     46  33  60 N7        30.08F
$$
MIZ004>006-011>014-085-282000-
CENTRAL UPPER MICHIGAN

CITY           SKY/WX    TMP DP  RH WIND       PRES   REMARKS
MANISTIQUE     SUNNY     48  34  58 S10G16    30.08F
ESCANABA       SUNNY     52  34  50 SW14      30.07F
MENOMINEE      SUNNY     54  36  50 S10       30.08F
SAWYER-GWINN   SUNNY     59  28  31 NE14G20   30.06F
$$
MIZ001>003-009>011-084-282000-
WESTERN UPPER MICHIGAN

CITY           SKY/WX    TMP DP  RH WIND       PRES   REMARKS
IRON MOUNTAIN  SUNNY     66  29  24 N8        30.03F
HOUGHTON       MOSUNNY   61  30  31 NW9       30.06F
COPPER HARBOR    N/A     48  34  58 N15       30.06F
IRONWOOD       MOSUNNY   63  34  34 N10       30.06F
$$

ABBREVIATIONS USED IN REMARKS
   TC - TEMPERATURE IN CELSIUS
  WCI - WIND CHILL INDEX
   HX - HEAT INDEX
  VSB - VISIBILITY



USA.gov is the U.S. government's official web portal to all federal, state and local government web resources and services.